Weather History for Wittering, United Kingdom

Change the Weather History Date:

Monday, January 21, 2013

  Actual Average Record
Temperature  
Mean Temperature 29 °F -  
Max Temperature 30 °F 43 °F 53 °F (2002)
Min Temperature 28 °F 34 °F 23 °F (2011)
Degree Days  
Heating Degree Days 36    
Moisture  
Dew Point 28 °F    
Average Humidity 97    
Maximum Humidity 100    
Minimum Humidity 91    
Precipitation  
Precipitation 0.04 in - - ()
Sea Level Pressure  
Sea Level Pressure 29.35 in    
Wind  
Wind Speed 4 mph ()    
Max Wind Speed 7 mph    
Max Gust Speed -    
Visibility 2.1 miles    
Events Rain , Snow    
Averages and records for this station are not official NWS values.
T = Trace of Precipitation, MM = Missing Value Source: Averaged Metar Reports

Daily Weather History Graph

Daily Weather History Graph

Search for Another Location

Airport:

Trip Planner

Search our weather history database for the weather conditions in past years. The results will help you decide how hot, cold, wet, or windy it might be!

Date:

Astronomy

Jan. 21, 2013 Rise Set
Actual Time 7:59 AM GMT 4:27 PM GMT
Civil Twilight 7:20 AM GMT 5:06 PM GMT
Nautical Twilight 6:38 AM GMT 5:48 PM GMT
Astronomical Twilight 5:57 AM GMT 6:29 PM GMT
Moon 11:55 AM GMT (1/21) 3:14 AM GMT (1/21)
Length of Visible Light 9h 46m
Length of Day
8h 28m
Waxing Gibbous, 73% of the Moon is Illuminated
Jan 21
Waxing Gibbous
Jan 27
Full
Feb 3
Last Quarter
Feb 10
New
Feb 17
First Quarter

Hourly Weather History & Observations

Time (GMT) Temp. Windchill Dew Point Humidity Pressure Visibility Wind Dir Wind Speed Gust Speed Precip Events Conditions
12:50 AM 30.2 °F 24.3 °F 28.4 °F 93% 29.27 in 2.2 mi NE 5.8 mph - N/A Snow Snow Grains
1:50 AM 28.4 °F 21.2 °F 28.4 °F 100% 29.27 in 1.0 mi NE 6.9 mph - N/A Snow Light Snow
2:50 AM 29 °F - 28 °F 97% 29.28 in 2 mi NE 6.9 mph - - Snow Light Snow
2:50 AM 28.4 °F 21.2 °F 28.4 °F 100% 29.24 in 1.6 mi NE 6.9 mph - N/A Snow Light Snow
3:50 AM 28.4 °F 23.3 °F 28.4 °F 100% 29.24 in 1.2 mi NE 4.6 mph - N/A Snow Light Snow
4:50 AM 28.4 °F 24.6 °F 28.4 °F 100% 29.24 in 0.9 mi ENE 3.5 mph - N/A Snow Light Snow
5:50 AM 29 °F - 28 °F 95% 29.28 in 1 mi East 2.3 mph - - Snow Light Snow
5:50 AM 28.4 °F - 28.4 °F 100% 29.24 in 1.4 mi East 2.3 mph - N/A Snow Light Snow
6:50 AM 28.4 °F 24.6 °F 28.4 °F 100% 29.27 in 1.8 mi ESE 3.5 mph - N/A Snow Light Snow
7:50 AM 28.4 °F - 28.4 °F 100% 29.27 in 1.8 mi SE 2.3 mph - N/A Snow Light Snow
8:50 AM 28 °F - 28 °F 97% 29.32 in 3 mi SSE 3.5 mph - - Rain Light Freezing Rain
8:50 AM 28.4 °F 24.6 °F 28.4 °F 100% 29.30 in 3.1 mi SSE 3.5 mph - N/A   Overcast
9:50 AM 28.4 °F 24.6 °F 26.6 °F 93% 29.30 in 3.1 mi SE 3.5 mph - N/A   Overcast
10:50 AM 28.4 °F - 28.4 °F 100% 29.33 in 3.1 mi SE 2.3 mph - N/A   Mostly Cloudy
11:50 AM 29 °F - 29 °F 98% 29.36 in 1 mi SE 2.3 mph - - Rain Light Freezing Rain
11:50 AM 30.2 °F - 28.4 °F 93% 29.33 in 1.5 mi SE 2.3 mph - N/A   Overcast
12:50 PM 30.2 °F 25.4 °F 28.4 °F 93% 29.33 in 1.7 mi SSE 4.6 mph - N/A   Overcast
1:50 PM 30.2 °F 25.4 °F 30.2 °F 100% 29.33 in - SE 4.6 mph - N/A   Mostly Cloudy
2:50 PM 31 °F - 29 °F 91% 29.38 in 3 mi SE 3.5 mph - -   Mist
2:50 PM 30.2 °F 26.7 °F 30.2 °F 100% 29.36 in - SE 3.5 mph - N/A   Mostly Cloudy
3:50 PM 30.2 °F 26.7 °F 28.4 °F 93% 29.36 in 3.1 mi SE 3.5 mph - N/A   Mostly Cloudy
4:50 PM 30.2 °F - 28.4 °F 93% 29.39 in 2.5 mi SE 2.3 mph - N/A   Mostly Cloudy
5:50 PM 29 °F - 28 °F 96% 29.43 in 2 mi SE 2.3 mph - - Rain Light Freezing Rain
5:50 PM 30.2 °F - 28.4 °F 93% 29.42 in - SE 2.3 mph - N/A   Mostly Cloudy
6:50 PM 30.2 °F 25.4 °F 28.4 °F 93% 29.42 in - SE 4.6 mph - N/A   Mostly Cloudy
7:50 PM 28.4 °F 24.6 °F 26.6 °F 93% 29.44 in 1.2 mi SE 3.5 mph - N/A   Mostly Cloudy
8:50 PM 28 °F - 28 °F 98% 29.49 in 2 mi SE 2.3 mph - - Snow Light Snow Showers
8:50 PM 28.4 °F - 28.4 °F 100% 29.44 in 1.8 mi SE 2.3 mph - N/A Snow Light Snow Showers
9:50 PM 28.4 °F 24.6 °F 28.4 °F 100% 29.47 in - SSE 3.5 mph - N/A Snow Snow Grains
10:50 PM 28.4 °F 22.2 °F 28.4 °F 100% 29.47 in 2.8 mi ESE 5.8 mph - N/A   Overcast
11:50 PM 29 °F - 29 °F 98% 29.51 in 3 mi ESE 4.6 mph - -   Mist
11:50 PM 30.2 °F 25.4 °F 28.4 °F 93% 29.47 in 3.1 mi ESE 4.6 mph - N/A   Overcast